Precipitable_Water
0.99 1.13 1.09 1.07 1.16 1.23 1.30 1.32 1.32 1.37 1.44 1.44 1.40 1.39 1.34 1.29 1.24 1.20 1.19 1.18 1.12 1.10 1.09 1.08 1.05 1.03 1.06 1.09 1.10 1.12 1.22 1.34 1.32 1.32 1.33 1.37 1.32 1.31 1.30 1.33 1.39 1.32 1.36
1.06 1.19 1.12 1.09 1.17 1.21 1.31 1.27 1.23 1.34 1.39 1.39 1.40 1.33 1.32 1.23 1.19 1.18 1.18 1.15 1.11 1.10 1.11 1.10 1.04 1.01 1.02 1.09 1.15 1.17 1.28 1.34 1.27 1.27 1.27 1.31 1.36 1.39 1.35 1.30 1.37 1.34 1.36
1.08 1.18 1.17 1.10 1.17 1.20 1.26 1.23 1.20 1.20 1.27 1.32 1.30 1.30 1.24 1.17 1.17 1.16 1.17 1.16 1.13 1.12 1.12 1.14 1.09 1.06 1.05 1.05 1.14 1.20 1.19 1.21 1.33 1.22 1.28 1.34 1.28 1.32 1.37 1.36 1.35 1.35 1.33
1.11 1.15 1.19 1.13 1.16 1.17 1.18 1.22 1.22 1.17 1.20 1.24 1.27 1.22 1.14 1.14 1.16 1.15 1.18 1.16 1.16 1.17 1.14 1.11 1.13 1.09 1.07 1.08 1.08 1.06 1.07 1.11 1.22 1.24 1.27 1.25 1.20 1.23 1.33 1.35 1.39 1.40 1.38
1.06 1.12 1.19 1.17 1.15 1.12 1.16 1.22 1.25 1.19 1.21 1.23 1.19 1.12 1.11 1.14 1.14 1.16 1.19 1.19 1.19 1.19 1.18 1.14 1.10 1.09 1.09 1.13 1.12 1.08 1.02 1.01 1.09 1.23 1.31 1.34 1.29 1.24 1.25 1.27 1.34 1.38 1.50
1.01 1.11 1.21 1.16 1.14 1.14 1.14 1.20 1.23 1.19 1.18 1.13 1.11 1.11 1.11 1.18 1.20 1.20 1.21 1.23 1.22 1.23 1.19 1.21 1.15 1.08 1.08 1.10 1.09 1.04 1.02 0.98 1.05 1.15 1.21 1.24 1.37 1.28 1.27 1.27 1.22 1.28 1.35
1.07 1.12 1.15 1.17 1.17 1.17 1.14 1.15 1.17 1.11 1.10 1.12 1.11 1.10 1.17 1.23 1.25 1.25 1.24 1.24 1.28 1.33 1.27 1.22 1.19 1.15 1.12 1.12 1.11 1.09 1.07 1.04 1.14 1.09 1.10 1.19 1.31 1.30 1.28 1.29 1.31 1.29 1.24
1.14 1.19 1.18 1.22 1.18 1.18 1.18 1.16 1.14 1.13 1.12 1.15 1.15 1.15 1.23 1.29 1.32 1.31 1.30 1.30 1.32 1.31 1.25 1.23 1.19 1.16 1.10 1.08 1.06 1.06 1.07 1.08 1.13 1.18 1.18 1.18 1.10 1.20 1.24 1.26 1.33 1.37 1.35
1.27 1.25 1.24 1.29 1.26 1.25 1.25 1.20 1.17 1.17 1.17 1.19 1.21 1.22 1.28 1.34 1.36 1.35 1.32 1.31 1.30 1.28 1.26 1.23 1.20 1.16 1.10 1.06 1.04 1.04 1.02 1.04 1.15 1.19 1.17 1.29 1.19 1.18 1.24 1.25 1.30 1.35 1.35
1.23 1.27 1.32 1.40 1.34 1.34 1.33 1.25 1.21 1.21 1.22 1.23 1.24 1.30 1.32 1.36 1.40 1.40 1.40 1.37 1.31 1.30 1.29 1.28 1.23 1.18 1.10 1.04 1.02 1.02 1.01 1.00 1.09 1.11 1.21 1.21 1.20 1.22 1.25 1.25 1.27 1.29 1.32
1.17 1.19 1.27 1.35 1.36 1.33 1.32 1.27 1.24 1.25 1.28 1.30 1.29 1.35 1.36 1.41 1.43 1.43 1.45 1.41 1.36 1.32 1.30 1.26 1.19 1.10 1.03 1.00 0.96 0.94 0.94 1.02 1.00 1.02 1.13 1.15 1.16 1.18 1.19 1.25 1.28 1.30 1.33
1.10 1.24 1.27 1.29 1.29 1.28 1.30 1.30 1.30 1.31 1.34 1.36 1.36 1.38 1.39 1.47 1.47 1.49 1.49 1.42 1.36 1.31 1.25 1.15 1.07 0.98 0.91 0.87 0.83 0.86 0.93 0.98 0.99 1.02 1.09 1.11 1.15 1.20 1.23 1.27 1.26 1.33 1.34
1.18 1.28 1.35 1.34 1.37 1.33 1.33 1.33 1.35 1.32 1.33 1.37 1.37 1.38 1.40 1.44 1.47 1.48 1.45 1.35 1.29 1.23 1.10 1.05 0.95 0.88 0.83 0.79 0.80 0.80 0.86 0.95 0.99 1.03 1.00 1.08 1.18 1.20 1.21 1.22 1.23 1.28 1.29
1.18 1.22 1.41 1.38 1.38 1.38 1.39 1.35 1.30 1.28 1.30 1.30 1.37 1.41 1.37 1.36 1.38 1.43 1.40 1.27 1.20 1.11 1.03 0.95 0.84 0.78 0.74 0.74 0.74 0.77 0.82 0.86 0.93 0.97 0.98 1.00 1.02 1.09 1.16 1.11 1.12 1.14 1.18
1.11 1.27 1.45 1.45 1.41 1.43 1.34 1.31 1.29 1.26 1.27 1.29 1.39 1.41 1.40 1.36 1.36 1.39 1.29 1.17 1.08 1.01 0.91 0.82 0.75 0.70 0.66 0.65 0.65 0.66 0.72 0.76 0.81 0.91 0.95 0.95 1.05 1.14 1.14 1.08 1.02 0.98 0.98
0.99 1.19 1.36 1.48 1.50 1.48 1.39 1.35 1.32 1.30 1.31 1.37 1.40 1.42 1.45 1.44 1.43 1.38 1.19 1.08 0.94 0.85 0.78 0.71 0.67 0.63 0.59 0.58 0.57 0.60 0.66 0.73 0.81 0.84 0.95 1.01 1.02 1.06 1.07 1.02 0.97 0.91 0.88
0.97 1.09 1.29 1.48 1.60 1.55 1.44 1.42 1.40 1.39 1.37 1.38 1.42 1.45 1.48 1.49 1.44 1.37 1.23 1.05 0.89 0.82 0.74 0.69 0.63 0.59 0.54 0.54 0.57 0.62 0.70 0.75 0.77 0.81 0.89 0.94 0.98 0.99 0.98 0.95 0.92 0.93 0.91
1.04 1.04 1.25 1.43 1.57 1.59 1.50 1.48 1.48 1.48 1.45 1.43 1.45 1.47 1.50 1.50 1.47 1.37 1.20 1.02 0.91 0.83 0.75 0.66 0.57 0.51 0.52 0.54 0.58 0.65 0.69 0.73 0.76 0.82 0.88 0.89 0.90 0.91 0.94 0.96 0.91 0.86 0.83
1.09 1.10 1.17 1.38 1.51 1.62 1.57 1.51 1.50 1.50 1.48 1.48 1.46 1.46 1.51 1.50 1.48 1.40 1.21 1.04 0.97 0.87 0.77 0.67 0.57 0.53 0.52 0.61 0.65 0.70 0.75 0.76 0.79 0.83 0.85 0.87 0.87 0.86 0.87 0.83 0.81 0.79 0.77
1.14 1.16 1.27 1.36 1.49 1.57 1.55 1.51 1.48 1.45 1.47 1.49 1.49 1.49 1.52 1.51 1.49 1.43 1.24 1.08 1.00 0.92 0.82 0.70 0.59 0.56 0.61 0.65 0.64 0.70 0.75 0.79 0.81 0.83 0.83 0.84 0.83 0.83 0.83 0.83 0.79 0.75 0.71
1.14 1.15 1.20 1.35 1.43 1.45 1.40 1.34 1.33 1.36 1.40 1.41 1.45 1.48 1.52 1.52 1.52 1.43 1.29 1.15 1.04 0.95 0.85 0.75 0.67 0.63 0.67 0.70 0.65 0.67 0.74 0.79 0.79 0.81 0.85 0.82 0.78 0.79 0.80 0.80 0.76 0.72 0.67
1.05 1.12 1.16 1.23 1.34 1.41 1.40 1.38 1.38 1.35 1.38 1.43 1.43 1.49 1.52 1.54 1.52 1.42 1.35 1.22 1.08 0.98 0.90 0.77 0.71 0.67 0.71 0.73 0.65 0.66 0.60 0.68 0.77 0.81 0.85 0.85 0.81 0.80 0.80 0.79 0.76 0.72 0.67
1.00 1.10 1.16 1.19 1.21 1.34 1.35 1.35 1.32 1.32 1.35 1.37 1.38 1.43 1.48 1.50 1.49 1.42 1.38 1.26 1.14 1.04 0.91 0.82 0.78 0.74 0.70 0.76 0.79 0.72 0.63 0.59 0.69 0.78 0.82 0.84 0.83 0.80 0.82 0.79 0.75 0.72 0.67
1.01 1.16 1.21 1.22 1.23 1.32 1.32 1.25 1.24 1.27 1.24 1.32 1.33 1.36 1.37 1.41 1.39 1.34 1.32 1.27 1.16 1.05 0.93 0.83 0.82 0.81 0.80 0.72 0.77 0.77 0.79 0.77 0.65 0.63 0.77 0.81 0.82 0.81 0.80 0.76 0.73 0.69 0.65
0.95 1.07 1.17 1.18 1.19 1.23 1.27 1.29 1.27 1.22 1.24 1.28 1.30 1.29 1.31 1.35 1.32 1.28 1.25 1.21 1.17 1.08 0.94 0.84 0.76 0.75 0.82 0.81 0.78 0.75 0.74 0.75 0.78 0.69 0.62 0.69 0.77 0.79 0.78 0.76 0.73 0.68 0.65
0.93 1.02 1.12 1.17 1.19 1.25 1.29 1.30 1.32 1.24 1.24 1.26 1.26 1.23 1.21 1.21 1.21 1.19 1.19 1.17 1.12 1.05 0.97 0.88 0.82 0.80 0.72 0.67 0.67 0.70 0.70 0.73 0.74 0.72 0.70 0.69 0.66 0.70 0.72 0.73 0.71 0.67 0.64
Wind_Speed
6 7 8 7 6 4 3 3 5 5 5 5 5 4 4 4 4 4 4 4 5 5 5 5 5 6 6 6 7 8 8 8 8 9 9 9 9 8 8 8 7 8 8
6 9 9 8 7 6 4 5 5 6 6 6 5 5 4 4 3 3 4 4 4 4 4 4 5 5 5 6 7 7 8 9 9 8 8 8 8 8 7 7 8 8 8
6 9 10 10 9 7 6 5 6 6 7 7 6 5 4 4 4 3 3 3 3 3 3 4 4 5 5 5 6 7 7 7 7 7 6 6 6 6 6 6 7 6 6
7 9 11 11 11 9 7 6 6 7 7 7 7 6 5 4 4 4 3 2 2 3 3 3 4 4 4 5 6 6 5 5 5 4 4 4 4 5 5 5 5 5 5
7 8 11 12 11 10 9 8 8 8 8 7 7 6 6 5 5 4 3 2 2 2 2 3 3 3 4 4 5 4 3 2 2 2 2 2 2 3 3 3 4 4 4
8 9 11 12 12 11 10 10 9 9 9 8 8 7 7 6 6 5 4 3 3 2 2 3 3 3 3 3 3 3 2 1 1 1 1 0 0 2 2 2 2 2 2
9 9 11 12 12 12 12 11 11 11 11 10 9 9 8 7 7 7 6 5 4 4 3 3 3 3 4 4 4 4 4 4 4 3 3 3 2 3 3 2 1 0 0
10 11 12 13 13 13 13 13 13 12 12 11 11 10 9 8 8 8 7 7 6 6 5 5 5 5 5 6 6 6 6 6 6 6 5 5 5 5 6 5 4 4 3
12 12 13 14 14 14 14 14 14 14 13 13 12 11 10 10 10 9 9 8 8 8 8 7 7 7 7 7 7 7 7 7 7 7 7 7 7 7 8 7 7 6 6
14 14 14 15 15 15 15 15 16 15 15 14 14 13 12 11 11 11 10 10 10 10 10 9 9 8 8 8 8 8 8 8 8 7 7 7 7 8 8 9 9 9 9
16 16 16 16 16 17 15 16 17 17 16 15 15 14 13 12 12 13 12 12 11 12 11 11 10 10 10 10 9 9 9 8 8 8 7 7 7 8 8 9 9 9 10
19 19 18 18 18 18 17 17 18 18 18 17 16 16 15 14 14 14 14 13 13 13 13 13 12 12 12 11 11 10 9 9 8 8 8 8 8 7 7 8 9 9 10
21 21 21 20 19 20 19 18 19 20 19 19 18 17 16 16 16 15 15 15 15 15 15 15 14 14 13 12 11 11 10 10 9 9 9 9 9 9 9 9 9 10 11
24 24 24 23 22 21 21 20 20 21 22 21 20 19 18 17 17 17 17 16 16 17 16 16 16 15 14 13 13 12 12 11 10 10 10 10 11 10 9 10 11 12 13
25 26 26 26 24 24 23 23 22 23 24 23 22 22 21 20 19 19 19 18 18 18 18 17 16 16 15 14 14 13 13 12 12 11 10 10 10 10 10 10 12 13 14
25 27 27 28 26 26 25 25 24 25 25 25 24 24 24 22 21 21 20 20 19 19 18 18 18 17 16 16 15 15 15 14 14 13 12 11 11 11 12 12 14 15 16
25 27 28 28 28 27 27 26 26 26 27 27 26 26 25 25 23 23 22 21 21 20 20 19 19 19 18 18 17 17 17 17 16 16 16 15 14 15 15 16 17 17 18
26 27 28 29 29 28 28 27 26 27 28 29 28 28 27 27 26 25 24 23 22 21 21 21 21 21 21 21 20 19 19 19 19 18 18 18 18 18 19 19 19 20 20
26 26 28 29 29 29 29 28 28 28 29 30 30 30 29 29 28 28 26 25 24 24 23 23 23 23 23 22 22 21 21 20 21 21 20 20 20 20 20 20 21 21 22
25 25 26 27 28 29 29 29 29 29 29 31 32 32 32 32 31 30 29 28 27 26 26 26 26 26 25 24 23 22 22 22 22 22 22 22 22 22 22 22 23 22 22
24 24 25 26 27 28 29 29 29 29 29 30 31 32 33 33 33 32 31 30 31 30 30 29 28 28 27 26 24 23 24 24 24 24 25 24 24 24 25 25 24 24 23
24 24 25 26 27 29 30 30 29 29 30 30 30 31 32 33 33 33 33 33 33 33 33 32 32 31 30 29 28 26 27 27 27 27 27 26 26 26 26 26 25 24 24
25 26 26 26 27 29 29 29 29 28 29 29 30 30 31 31 32 33 34 35 34 34 34 35 35 34 33 33 30 29 28 29 28 30 29 29 28 28 28 27 26 26 25
24 26 27 28 29 30 31 31 31 30 30 30 31 30 30 30 31 33 33 34 35 36 35 36 35 35 34 34 33 32 30 29 31 30 31 31 31 30 30 28 27 26 26
24 25 27 28 28 29 31 32 32 30 30 30 30 30 30 30 30 32 33 35 35 34 35 35 36 37 35 33 33 33 33 32 33 31 30 31 32 31 30 29 28 28 28
21 23 26 28 29 30 31 32 33 33 32 31 31 31 32 33 33 34 38 34 38 37 36 37 38 36 36 35 34 33 33 33 31 31 31 31 31 30 30 29 29 28 29
Wind_Direction
251 220 223 218 210 201 190 173 163 164 164 164 158 145 138 128 113 106 99 95 93 96 99 100 100 99 97 96 95 97 97 95 91 95 95 91 90 87 87 86 80 83 83
242 225 222 213 207 204 201 190 183 182 180 177 173 162 155 142 131 119 109 100 97 101 105 108 108 108 106 104 102 101 100 97 94 95 96 90 88 84 86 84 81 85 82
245 226 218 211 207 209 210 202 197 192 188 184 181 175 171 162 153 141 125 110 102 102 113 119 117 116 113 111 110 108 107 100 96 91 94 93 87 87 87 86 86 85 83
253 223 215 210 208 211 213 210 204 195 191 188 187 187 184 181 175 166 154 134 120 112 119 132 131 123 121 120 119 117 110 103 98 92 85 91 93 89 92 91 88 88 86
244 219 213 209 211 214 213 213 209 202 197 196 197 197 198 197 195 191 187 176 156 141 139 144 151 141 137 134 137 131 123 114 105 80 88 88 116 94 103 99 91 91 88
238 222 213 212 214 216 216 215 213 208 206 206 207 205 209 210 209 208 209 207 201 194 180 171 169 170 167 168 173 183 195 222 251 258 246 239 180 173 143 119 97 93 75
235 226 217 216 216 219 220 218 216 213 214 214 215 214 216 218 217 217 221 223 224 217 213 207 210 215 219 224 228 237 250 259 268 259 260 259 262 227 227 229 239 261 10
235 230 221 219 221 223 223 221 219 216 219 220 219 218 221 224 224 225 228 231 231 231 233 235 239 241 244 245 248 252 257 260 262 262 261 259 261 252 246 249 254 260 268
236 230 226 223 224 225 225 224 222 220 221 224 221 222 225 229 230 230 233 239 239 240 243 246 249 251 253 252 251 255 259 261 260 259 259 262 262 257 252 252 258 263 268
235 232 230 226 227 227 230 227 225 223 223 223 222 224 227 231 234 236 239 244 245 244 246 249 252 254 254 254 254 256 256 258 256 255 258 263 262 261 257 255 261 264 268
237 232 232 230 230 228 231 229 227 225 224 223 223 226 229 236 238 239 243 244 247 247 248 250 252 254 255 256 254 255 257 255 252 251 258 262 264 265 261 258 263 267 270
237 234 234 232 233 230 232 231 228 226 225 224 226 227 232 238 241 242 244 245 248 249 250 251 253 255 257 256 252 251 252 249 250 253 259 261 263 265 263 264 265 269 271
237 236 236 235 234 232 233 233 230 228 226 227 229 230 235 238 242 242 245 246 248 250 251 250 252 253 252 251 250 250 248 248 251 257 260 261 264 265 265 267 269 272 275
239 238 236 235 235 235 235 235 235 232 230 231 232 234 238 240 241 243 245 246 249 250 252 251 249 248 247 247 247 247 247 249 253 258 263 262 264 264 264 268 272 274 276
242 240 236 235 237 236 236 238 238 236 234 234 236 238 240 242 244 244 245 246 248 250 249 247 244 243 243 244 245 247 247 248 251 256 264 265 260 260 264 272 276 279 279
244 241 239 237 238 238 238 239 241 239 237 236 239 240 242 244 245 245 246 248 248 248 247 244 242 241 241 243 245 246 247 248 251 253 256 259 260 264 270 276 280 282 282
247 243 240 238 238 238 237 239 242 241 239 239 241 241 242 244 245 245 247 249 249 249 246 244 242 242 243 244 246 247 249 250 251 252 255 257 262 267 273 278 281 282 282
247 244 241 240 239 238 238 241 243 243 241 240 242 242 243 244 245 245 248 250 249 249 247 246 245 245 246 247 248 249 251 251 251 253 256 259 263 267 274 279 282 283 285
246 245 242 240 239 238 238 242 244 245 244 243 244 244 244 245 246 246 248 248 248 249 249 248 247 246 246 247 249 251 252 253 253 255 257 260 263 268 273 279 283 286 285
245 244 244 241 240 239 240 243 246 247 246 245 245 246 247 247 247 247 248 248 248 250 250 249 248 248 248 248 249 250 253 255 255 257 258 261 264 267 271 276 281 284 284
245 245 245 243 242 240 241 244 248 248 248 247 247 248 249 249 249 248 248 250 250 251 251 250 249 248 247 247 248 252 255 256 257 258 259 261 263 267 272 275 278 278 280
247 248 247 245 242 242 245 248 250 249 249 248 249 249 250 250 250 250 251 252 252 253 252 251 249 248 248 246 252 253 256 258 259 260 260 261 263 266 271 274 275 275 276
251 250 249 246 245 246 246 248 249 250 250 249 250 252 252 251 253 253 252 252 252 253 252 251 249 249 248 247 250 257 258 262 257 260 260 261 263 266 269 270 272 273 274
256 254 250 249 248 249 247 248 248 250 251 251 251 253 255 255 255 254 255 255 256 253 253 250 250 250 251 249 251 256 260 260 261 261 260 261 263 266 267 268 269 271 272
261 257 253 251 251 250 250 250 249 251 252 252 253 253 255 255 257 259 258 257 258 255 255 254 253 250 250 251 254 256 260 262 263 262 261 261 264 266 267 266 268 270 273
263 259 255 252 251 251 250 251 250 250 251 253 254 255 257 258 258 265 260 258 259 255 256 254 254 249 248 252 257 257 260 262 263 263 267 260 263 263 265 266 267 269 272